GFSSW_prec_cloud_171.txt.gz
Cloud_Cover
0 0 0 0 0 0 0 0 0 0 0 0 0 0 0 0 0 0 0 0 0 0 0 0 0 0 2 0 0 0 0 0 0 0 0 0 0 0 0 0 0 0 0 0 0
0 0 0 0 0 0 0 0 0 0 0 0 0 0 0 0 0 0 0 0 0 0 0 0 0 0 0 0 0 0 0 0 0 0 0 0 0 0 0 0 0 0 0 0 0
0 0 0 0 0 0 0 0 0 0 0 0 0 0 0 0 0 0 0 0 0 0 0 0 0 0 0 0 0 0 0 0 0 0 0 0 3 0 0 0 0 0 0 0 0
0 0 0 0 0 0 0 0 0 0 0 0 0 0 0 0 0 0 0 1 0 0 0 0 0 0 0 3 2 5 20 3 0 0 3 0 0 5 4 0 0 0 0 0 0
0 0 0 0 0 0 0 0 0 0 0 0 2 4 0 0 0 0 0 2 5 5 3 0 0 0 0 5 5 8 5 9 5 5 4 1 4 5 35 0 0 0 0 0 0
0 0 0 0 0 0 0 0 0 0 2 5 9 5 4 5 1 1 0 0 0 0 1 6 0 3 33 4 2 0 38 22 64 5 62 5 5 5 44 5 5 2 0 1 2
0 0 0 0 0 0 0 5 1 5 2 3 5 5 3 5 5 0 0 0 0 0 0 0 0 5 47 55 4 5 5 0 3 3 4 2 39 5 60 11 16 5 0 3 0
0 2 1 0 0 0 4 0 3 5 5 5 5 5 5 1 0 0 3 3 0 0 0 0 0 1 6 8 4 5 4 5 5 0 5 2 5 76 5 20 99 100 100 26 5
0 0 2 4 3 0 0 1 5 5 5 5 5 5 11 6 5 5 5 3 0 0 0 0 3 13 100 5 5 5 0 1 0 5 2 0 3 52 36 5 15 100 100 100 99
5 5 5 5 5 5 5 5 2 5 0 4 5 5 5 8 4 2 5 2 0 0 4 5 5 63 66 5 5 4 4 5 4 4 0 0 0 4 92 100 100 100 100 100 100
5 5 5 5 5 5 5 5 5 14 5 5 6 84 5 5 5 5 0 1 0 1 2 4 1 5 5 5 5 5 5 5 5 5 0 0 2 7 50 100 100 91 100 100 100
5 5 5 5 5 5 5 6 5 5 10 5 5 5 5 0 0 5 2 0 1 1 5 0 1 5 5 32 17 5 5 23 6 44 17 3 0 0 4 5 34 100 100 98 100
2 2 4 5 1 5 1 5 5 5 5 26 5 4 3 0 0 1 5 6 13 5 5 0 5 3 4 6 90 20 5 5 0 1 2 0 0 2 66 46 97 100 100 100 84
5 5 5 5 5 4 4 0 0 2 1 5 13 64 5 0 4 5 5 5 0 0 4 4 2 1 5 5 10 5 5 5 4 2 0 1 1 22 99 79 96 42 96 100 100
10 5 5 5 5 5 5 5 5 5 2 4 5 5 0 0 0 0 5 0 0 3 5 5 5 9 5 2 42 2 6 8 5 5 0 14 83 6 0 0 98 100 9 100 100
97 3 2 5 5 5 5 5 5 5 5 1 1 3 4 5 0 1 5 5 3 5 5 3 25 80 67 10 66 86 99 100 73 86 28 36 100 0 0 0 2 100 100 100 100
97 88 32 7 5 5 29 82 46 5 5 16 60 76 9 5 4 5 36 5 12 9 5 4 5 91 100 70 99 100 100 100 100 100 36 8 96 0 0 2 1 6 99 100 100
100 100 97 76 96 90 81 60 44 100 99 98 100 76 24 19 5 7 83 89 68 26 5 0 2 97 100 100 100 100 100 100 100 100 22 18 24 0 100 86 5 0 10 95 100
100 95 100 100 100 98 100 100 20 71 99 100 100 100 100 6 28 40 92 100 88 5 5 5 0 39 78 100 100 100 100 100 100 100 100 47 37 98 97 23 7 0 0 85 100
100 100 100 100 100 100 100 80 96 67 97 95 100 100 100 97 54 100 93 44 13 5 5 38 57 5 27 100 100 100 100 100 100 100 96 100 100 100 100 83 47 4 4 91 100
100 100 100 100 100 100 100 100 100 100 100 100 100 100 100 100 100 100 100 73 5 5 79 30 66 39 100 100 100 100 100 100 92 100 98 40 46 100 100 95 62 99 11 26 60
100 100 100 100 100 100 100 100 100 100 100 100 100 100 100 100 100 100 100 100 99 100 100 100 99 67 100 13 82 100 4 86 100 91 100 100 99 100 100 78 88 87 92 92 100
100 100 100 100 100 100 100 100 100 95 82 100 100 100 100 100 98 100 100 100 100 100 100 98 91 11 0 0 3 50 81 98 100 100 100 99 97 72 82 62 100 100 100 100 100
100 100 100 100 100 100 100 94 100 100 95 99 100 100 100 100 100 100 100 100 100 100 100 36 19 7 5 4 1 3 86 100 100 100 72 94 28 5 82 43 100 100 100 100 100
100 100 100 100 100 100 100 100 100 100 100 100 100 100 100 100 100 100 100 100 100 100 82 38 8 6 5 2 0 6 5 55 77 64 84 38 80 0 0 0 58 100 100 100 100
100 100 100 100 100 100 100 100 100 100 100 100 100 100 100 100 100 100 100 100 100 100 3 0 0 3 0 0 0 5 0 0 1 99 100 83 2 84 36 5 96 100 100 100 100
100 100 100 100 100 100 100 98 100 100 100 100 100 100 100 100 100 100 100 100 100 91 0 0 0 2 4 0 4 5 2 0 0 0 0 35 3 0 0 5 83 100 100 100 100

GFSSW_prec_cloud_174.txt.gz
Cloud_Cover
0 0 0 0 0 0 0 0 0 0 0 0 0 0 0 0 0 0 0 0 0 0 0 0 0 0 0 0 0 0 0 0 0 0 0 0 0 0 0 0 0 0 0 0 0
0 0 0 0 0 0 0 0 0 0 0 0 0 0 0 6 0 0 0 0 0 0 0 0 0 0 0 0 0 0 0 0 0 0 0 0 0 0 0 0 0 0 0 0 0
0 0 0 0 0 0 0 0 0 0 0 0 0 0 7 0 0 0 0 0 0 0 0 0 0 0 0 0 0 0 0 0 0 0 0 0 0 0 0 0 0 0 0 0 0
0 0 0 0 0 0 0 0 0 0 0 0 0 0 0 5 0 1 5 5 5 0 0 0 0 0 0 0 0 0 0 4 2 0 5 3 5 5 0 0 0 0 3 5 5
0 0 0 0 0 0 0 0 0 0 0 0 2 0 0 0 5 5 5 5 5 4 5 2 0 0 0 0 0 4 3 0 5 0 0 0 0 5 32 0 0 0 0 0 3
0 0 0 0 0 0 0 0 0 0 0 0 0 3 5 5 3 5 5 5 1 0 0 4 2 0 0 0 0 5 2 1 2 0 5 5 5 5 2 0 0 0 0 0 3
0 0 0 0 0 0 0 0 0 0 4 5 5 5 6 6 5 5 5 5 5 5 5 4 0 0 5 5 5 5 6 10 33 3 5 0 5 5 5 5 5 5 5 0 0
0 0 0 0 0 0 0 1 0 0 0 1 5 5 5 5 5 5 5 2 0 0 2 3 0 0 1 2 2 4 4 10 21 0 4 0 3 0 4 5 5 5 5 0 5
0 0 0 4 4 5 5 3 1 2 5 5 3 5 5 5 5 5 5 5 5 2 1 0 0 5 10 4 0 0 0 0 0 2 0 0 0 0 4 1 5 5 5 0 0
0 0 2 2 5 5 5 5 4 4 4 5 5 5 5 5 5 5 5 5 5 5 0 0 0 0 3 0 0 0 0 0 2 5 0 0 0 2 53 100 90 74 68 49 2
5 5 5 5 5 5 5 5 5 5 5 5 7 12 5 28 64 12 5 5 5 5 5 0 0 1 0 3 1 0 2 5 7 13 5 5 0 0 96 32 5 5 4 4 4
5 5 5 29 6 5 5 6 5 5 5 5 5 38 7 5 5 5 5 5 3 1 0 0 0 1 0 5 5 4 5 12 2 5 5 0 1 0 0 0 4 0 5 38 42
51 70 95 100 68 5 5 5 5 5 5 16 6 5 5 4 5 4 5 4 0 0 0 1 4 5 3 0 0 0 2 2 5 10 0 2 0 0 1 1 0 0 2 31 100
100 18 5 5 5 5 5 5 5 5 5 6 5 5 22 46 6 1 0 0 0 0 0 0 5 5 5 4 3 0 5 5 5 5 0 4 1 0 10 83 80 95 5 5 22
99 100 81 1 0 0 0 1 5 5 0 5 5 5 1 0 3 5 5 5 5 0 2 5 5 5 4 2 5 2 5 38 7 5 0 2 73 0 14 100 100 100 100 99 78
88 100 100 74 36 5 6 5 4 1 5 3 5 2 0 0 4 1 4 3 0 1 5 4 5 2 0 11 85 87 78 100 100 66 5 2 98 0 4 42 100 100 98 90 74
100 100 74 99 5 5 5 14 72 66 49 4 5 5 5 3 3 4 0 2 4 5 40 93 53 58 34 12 100 100 100 100 100 100 39 20 73 91 95 37 44 100 100 67 0
66 100 82 46 96 99 21 36 45 96 100 100 100 12 20 53 78 49 9 5 77 34 5 21 94 71 68 96 69 100 100 100 100 100 100 100 22 5 100 100 80 2 81 100 7
100 100 100 100 100 100 100 61 36 100 100 100 100 90 65 75 98 40 7 5 94 97 91 18 5 5 5 5 90 92 99 100 77 17 63 98 100 100 100 100 100 96 100 100 49
100 100 100 91 100 100 99 100 68 99 100 100 100 99 97 100 100 100 54 100 78 63 100 48 53 98 10 76 16 42 93 100 100 100 77 5 66 34 94 100 27 69 100 100 38
100 100 100 100 100 100 100 100 100 100 100 100 100 100 100 100 100 100 87 76 100 10 5 99 100 100 100 74 100 100 100 100 100 100 100 21 16 100 98 100 100 100 100 98 86
100 100 100 100 100 100 100 100 100 100 100 100 100 100 100 100 100 100 100 100 100 41 18 89 15 100 100 79 99 100 97 67 73 100 58 100 19 99 100 100 99 100 100 100 100
100 100 100 100 100 97 100 100 100 100 100 100 100 100 100 100 100 100 100 100 100 100 100 100 97 100 100 97 22 100 73 90 100 100 80 83 16 90 100 100 100 65 100 100 100
100 100 100 100 100 100 100 100 100 100 100 100 100 100 100 100 100 100 100 100 100 100 100 100 92 100 100 70 78 61 6 15 94 100 92 59 4 0 46 100 73 59 100 100 100
100 100 100 100 100 100 100 100 100 100 64 79 100 100 100 100 100 100 100 100 100 100 100 93 100 100 95 100 58 4 1 0 2 53 97 6 46 0 4 5 79 100 100 100 100
100 100 100 100 100 100 100 100 100 100 100 100 100 100 100 100 100 100 100 100 100 100 100 100 100 44 100 67 4 0 0 0 0 0 0 72 8 0 0 22 3 5 84 24 100
91 99 100 100 100 100 100 100 90 93 98 100 100 100 100 100 100 100 100 100 100 100 100 100 39 100 100 8 0 4 4 19 5 0 0 0 0 0 0 19 6 5 7 44 100

GFSSW_prec_cloud_177.txt.gz
Cloud_Cover
0 0 0 0 0 0 0 0 0 0 0 0 0 0 0 0 0 0 0 0 0 0 0 0 0 0 0 0 0 0 0 0 0 0 0 0 0 0 0 0 0 0 0 0 0
0 0 0 0 0 0 0 0 0 0 0 0 0 0 6 3 0 0 0 0 0 3 0 0 0 0 0 0 0 0 0 0 0 0 0 0 0 0 0 0 0 0 0 0 0
0 0 0 0 0 0 0 0 0 0 0 0 0 5 28 0 0 0 0 3 5 5 5 0 0 0 0 0 0 0 0 0 0 0 0 0 0 3 0 0 0 0 0 0 0
0 0 0 0 0 0 0 0 0 0 0 0 0 0 0 3 4 5 5 5 5 5 5 4 0 0 0 0 0 0 0 0 0 0 0 0 0 0 2 0 0 0 0 5 0
0 0 0 0 0 0 0 0 0 0 0 0 0 6 4 5 5 0 3 5 5 5 1 2 3 5 0 0 0 0 0 0 0 0 0 0 0 5 19 0 0 0 0 4 49
0 0 0 0 0 0 0 0 0 0 0 2 0 0 2 1 0 0 2 5 5 5 5 5 5 5 0 0 0 0 0 0 0 0 0 0 0 0 7 0 0 0 0 0 1
0 0 0 0 0 0 0 0 0 0 3 0 0 0 0 3 4 5 5 5 5 5 5 5 5 5 4 0 0 0 0 0 0 0 0 0 0 5 2 0 0 0 0 0 0
0 0 0 0 0 0 0 0 0 0 4 5 5 5 5 5 5 5 5 5 5 5 6 7 29 28 8 2 1 0 0 0 0 0 0 0 0 0 0 0 0 1 5 5 1
0 0 0 0 0 0 0 3 4 5 9 10 6 7 21 9 7 5 6 25 45 55 27 15 5 5 5 0 0 0 0 0 0 0 0 0 0 3 0 0 0 5 28 5 2
0 0 4 5 5 5 14 54 91 90 87 88 96 78 59 47 8 26 56 53 49 30 5 4 14 29 2 0 0 0 0 0 0 4 5 4 2 0 5 0 5 11 39 85 2
0 0 0 1 4 5 5 5 5 45 44 74 88 62 12 5 7 21 32 19 5 4 2 4 0 0 0 0 0 0 0 0 0 1 2 40 5 0 4 57 100 85 5 4 4
97 0 0 0 0 4 5 5 5 5 46 44 99 100 75 76 27 84 6 5 5 5 5 0 0 5 4 4 1 0 5 18 5 5 4 5 0 5 4 4 2 2 1 80 54
89 1 0 0 0 0 4 5 5 5 23 46 26 5 32 19 5 31 43 5 5 5 5 5 41 76 5 5 5 5 3 2 3 0 5 5 1 12 13 0 4 5 0 65 100
98 0 100 0 0 4 5 5 7 16 26 84 72 97 84 5 8 14 9 48 93 93 98 79 43 65 54 52 70 98 34 5 5 5 1 4 8 95 6 3 100 1 4 5 90
53 22 79 96 0 0 0 3 6 5 7 24 71 19 12 11 5 96 100 12 57 100 100 100 100 64 68 100 97 97 44 5 5 5 4 3 67 0 0 1 95 100 57 100 100
0 79 100 18 0 0 0 0 0 5 100 100 95 88 100 100 14 1 79 62 25 48 19 100 99 61 5 8 63 100 21 5 43 15 10 2 70 0 0 2 3 100 100 100 100
8 32 83 89 3 10 5 64 80 99 84 26 15 14 84 66 7 55 24 4 10 59 99 100 100 100 97 99 100 100 91 89 17 8 4 0 97 0 0 5 3 100 100 100 100
58 85 100 64 90 13 97 61 60 6 5 89 62 60 76 40 42 21 13 43 12 84 100 100 100 100 100 100 100 91 71 100 74 92 5 0 17 5 35 93 88 67 100 100 100
94 100 100 100 87 94 59 100 79 100 99 100 100 100 100 31 5 8 29 45 70 99 9 23 87 66 80 100 100 100 100 100 100 100 37 0 0 0 5 92 100 100 100 100 100
93 100 100 99 98 90 100 88 100 100 100 100 100 98 70 44 100 73 18 7 100 86 98 93 80 34 100 100 97 55 95 100 100 100 98 4 2 0 24 100 100 100 100 100 100
100 97 13 52 100 100 100 100 100 100 100 100 100 100 74 17 91 100 97 5 22 100 100 99 62 49 100 100 100 94 85 19 42 100 100 50 1 96 79 35 100 100 100 100 100
97 100 90 96 96 100 100 100 72 64 94 91 98 100 100 97 100 100 100 12 66 100 100 100 100 100 100 100 100 100 100 100 100 94 68 100 14 36 100 100 100 100 100 100 100
100 100 100 100 100 100 60 99 86 79 72 100 97 80 50 100 100 79 99 100 100 100 100 100 100 100 100 100 100 100 100 100 100 87 57 79 1 5 4 4 38 66 100 100 100
100 96 100 100 100 84 81 99 100 100 92 100 100 100 100 100 100 100 100 100 100 100 100 100 100 100 100 100 100 100 97 45 79 66 5 4 1 0 0 0 20 27 66 94 100
100 100 98 100 85 100 100 100 100 100 100 100 100 100 100 100 100 100 100 100 100 100 100 100 100 100 100 100 100 100 100 100 59 4 8 0 0 0 0 0 0 59 98 87 75
100 100 100 100 100 100 100 79 100 100 82 64 99 100 100 100 100 100 100 100 84 100 100 100 100 100 100 99 100 100 82 2 0 0 0 4 4 0 0 0 0 0 77 100 100
99 100 100 100 100 100 62 72 97 100 60 63 76 99 99 100 100 100 100 100 100 100 100 100 100 100 94 100 83 96 4 0 0 1 10 50 3 5 2 1 0 0 18 99 100

GFSSW_prec_cloud_180.txt.gz
Cloud_Cover
0 0 0 0 0 0 0 0 0 0 0 0 0 0 4 19 2 0 0 0 0 0 0 0 0 0 0 0 0 0 0 0 0 0 0 0 0 0 0 0 0 0 0 0 0
0 0 0 0 0 0 0 0 0 0 0 0 0 0 7 11 2 0 0 0 0 0 0 0 0 0 0 0 0 0 0 0 0 0 0 0 0 0 0 0 0 0 0 0 0
0 0 0 0 0 0 0 0 0 0 0 0 0 0 6 0 0 0 0 0 0 0 1 0 0 0 3 0 0 0 0 0 0 0 0 0 0 0 0 0 0 0 0 0 0
0 0 0 0 0 0 0 0 0 0 0 0 0 0 0 0 0 0 0 0 0 0 0 0 4 5 5 3 0 0 0 0 0 0 0 0 0 0 0 0 0 0 0 0 0
5 0 0 0 0 0 0 0 0 0 0 0 0 0 1 5 5 5 2 0 0 2 5 4 3 4 0 0 0 0 0 0 0 0 0 0 0 0 0 0 0 0 0 0 0
18 9 0 0 0 0 0 0 0 0 0 0 0 5 5 4 4 5 5 5 5 5 5 5 5 5 5 5 5 4 0 0 0 0 0 0 0 0 4 0 0 0 0 0 0
21 28 0 0 0 0 0 0 0 0 1 3 5 5 5 5 5 5 5 5 16 42 45 8 31 59 18 5 0 0 0 0 1 0 0 0 0 0 0 0 0 0 0 4 1
5 15 0 0 0 0 0 0 0 2 5 5 5 5 5 5 5 5 21 44 14 6 5 6 32 22 5 2 4 5 2 3 4 0 0 0 0 0 0 0 0 0 1 4 0
0 0 0 0 0 0 0 0 0 0 0 5 5 7 6 5 6 5 5 16 6 56 61 19 20 31 8 5 7 2 4 3 1 5 0 0 0 0 0 0 0 1 3 1 1
2 0 0 0 0 0 0 0 0 0 0 0 0 3 5 6 39 5 100 12 65 26 32 76 14 20 32 6 6 6 10 6 40 23 5 4 3 2 0 2 43 5 5 1 12
100 10 0 0 0 0 0 0 0 0 0 0 5 5 5 41 92 97 69 92 75 68 8 5 8 38 5 5 5 5 2 1 5 46 5 9 39 100 78 34 5 3 0 5 5
98 68 0 0 0 0 0 0 0 1 3 3 37 41 19 32 11 16 56 20 10 4 5 4 8 5 5 4 5 21 98 100 96 100 98 100 23 62 100 100 32 3 0 2 3
1 46 0 0 0 0 3 5 5 5 21 45 7 5 5 3 1 0 1 1 4 5 5 37 6 5 30 1 5 9 40 12 41 39 94 47 96 100 100 22 7 5 0 0 0
0 52 12 0 0 0 0 0 2 3 5 24 6 5 5 5 3 5 5 5 5 11 29 5 6 21 92 19 16 97 99 94 59 7 34 99 95 100 100 22 5 3 1 0 0
0 6 97 9 0 0 2 3 2 2 3 5 1 0 0 2 5 5 5 5 5 6 5 18 62 56 5 74 5 6 5 12 17 4 1 9 5 5 64 5 1 0 14 5 1
0 14 56 67 0 0 0 0 3 5 5 4 5 5 5 12 6 5 5 6 47 5 5 5 6 12 58 22 5 15 50 61 87 22 4 4 5 0 2 10 3 0 9 100 88
5 43 80 3 0 0 4 1 4 82 5 5 5 7 4 5 21 57 19 8 10 5 38 5 5 5 75 8 77 64 95 48 38 72 5 2 5 7 7 14 3 9 97 100 100
5 91 97 68 5 4 4 4 9 4 5 4 4 4 99 97 23 4 5 5 5 16 5 50 77 100 11 5 96 95 70 100 92 29 4 2 5 12 100 99 100 100 37 100 100
80 100 100 29 34 43 44 58 2 2 13 28 9 65 2 4 5 2 3 2 5 50 5 30 47 11 5 97 100 100 100 77 63 100 98 4 1 46 6 95 100 100 100 18 100
81 96 93 6 29 82 100 60 100 100 94 63 18 5 5 5 5 5 5 8 10 68 99 60 86 26 24 59 100 100 100 99 81 100 100 35 56 45 52 1 3 90 76 4 95
100 64 2 65 94 100 99 93 100 100 64 5 6 5 5 5 39 54 55 49 14 94 75 83 47 40 46 71 100 100 100 100 86 100 88 100 8 15 54 5 5 70 30 7 91
64 71 5 96 93 100 100 90 63 78 17 77 84 97 100 99 91 56 100 94 53 69 88 92 100 95 100 96 87 100 100 100 100 100 100 100 20 100 100 33 5 5 5 5 60
100 95 78 93 99 84 61 90 20 85 100 60 100 100 100 88 100 100 86 92 100 100 98 100 100 100 100 100 100 100 100 100 100 100 98 100 13 99 98 0 1 3 0 0 5
100 96 72 100 90 100 67 100 88 78 95 87 81 98 100 100 100 100 99 100 100 100 100 100 100 100 100 100 89 100 98 100 100 99 90 100 72 74 6 0 0 0 0 0 0
98 100 100 96 65 100 100 100 100 100 100 95 100 99 100 100 100 100 100 100 100 100 100 100 100 100 100 100 100 100 99 100 100 86 18 77 58 10 0 0 0 0 0 0 0
100 100 100 100 100 100 100 59 82 100 100 100 100 92 70 100 100 100 100 99 100 100 100 100 100 100 100 100 100 100 100 100 100 100 23 1 0 5 5 5 4 0 0 0 0
96 100 100 100 100 100 78 24 75 60 49 58 95 74 28 34 100 100 65 95 100 72 100 100 100 100 100 100 100 100 100 98 66 4 5 5 13 12 38 91 50 36 18 5 0

GFSSW_prec_cloud_183.txt.gz
Cloud_Cover
0 0 0 0 0 0 0 0 0 0 0 0 0 0 0 1 0 0 0 0 0 0 0 0 0 0 0 0 0 0 0 0 0 0 0 0 0 0 0 0 0 0 0 0 0
1 0 0 0 0 0 0 0 0 0 0 0 0 0 0 7 1 0 0 0 0 0 0 0 0 0 0 0 0 0 0 0 0 0 0 0 0 0 0 0 0 0 0 0 0
15 0 0 0 0 0 0 0 0 0 0 0 0 0 0 0 0 0 0 0 0 0 0 0 4 4 3 1 0 3 4 2 0 0 0 0 0 0 0 0 0 0 0 0 0
22 48 4 0 0 0 0 0 0 0 0 0 0 0 0 0 0 0 0 0 0 0 0 1 5 6 5 5 5 4 5 5 5 0 0 2 0 0 4 0 0 0 0 0 0
20 70 9 0 0 0 0 0 0 0 0 0 0 0 0 0 0 1 0 0 0 0 2 5 5 1 0 0 5 5 5 34 70 36 15 5 2 0 0 0 0 0 0 0 1
4 40 27 0 0 0 0 0 0 0 0 0 0 0 0 0 0 0 0 0 0 0 2 5 4 5 0 0 1 1 6 10 14 98 100 100 94 68 5 5 0 0 0 0 5
0 25 32 0 0 0 0 0 0 0 0 0 0 0 0 0 0 0 0 0 0 0 2 22 30 56 5 5 5 5 0 0 0 0 0 1 2 5 4 0 0 0 0 0 0
0 0 0 0 0 0 0 0 0 0 0 0 0 0 0 0 0 0 0 0 1 5 5 5 70 17 5 6 46 23 4 3 4 0 0 0 3 0 2 7 9 5 5 5 0
14 23 0 0 0 0 0 0 0 0 0 0 0 0 0 0 0 0 2 1 1 4 5 5 14 8 5 0 0 0 0 0 0 0 0 0 2 6 0 6 16 5 5 5 18
100 86 0 0 0 0 0 0 0 0 0 0 0 0 0 1 2 5 5 5 5 5 5 3 0 0 0 0 0 0 0 0 0 0 0 0 5 5 4 0 10 5 3 5 6
0 43 0 0 0 0 0 0 0 0 0 0 5 5 5 5 5 5 5 4 2 0 0 0 0 0 0 0 0 0 0 0 0 5 0 5 24 100 35 5 1 0 5 5 57
0 0 0 0 0 0 0 0 0 0 3 5 5 5 5 4 5 5 3 4 4 1 0 0 0 0 0 0 0 0 0 0 0 0 0 6 66 99 25 0 0 0 2 5 5
0 0 0 0 0 0 0 0 0 0 0 0 2 0 0 0 0 1 0 0 0 0 1 5 5 3 0 0 0 2 1 2 0 0 0 0 4 69 20 0 2 5 8 5 10
0 0 0 0 0 1 5 5 0 0 4 5 5 5 5 4 1 0 0 0 5 61 5 5 5 5 1 4 4 1 1 0 0 0 1 0 0 2 0 0 4 65 100 70 6
88 6 0 0 0 0 0 0 0 0 0 5 5 5 0 0 0 4 6 13 58 41 65 43 5 5 5 1 0 0 5 5 0 4 4 19 10 0 0 0 0 5 10 42 6
27 17 18 5 5 1 0 0 0 0 0 0 0 0 0 0 0 16 5 15 70 35 7 5 4 0 4 3 4 1 5 15 82 62 5 5 0 0 9 55 1 2 5 5 74
80 86 68 7 5 5 5 3 3 4 0 0 0 2 0 0 0 12 33 19 33 53 38 2 0 0 0 5 4 5 5 38 89 20 2 0 4 0 68 1 1 1 2 95 88
100 32 25 6 5 5 11 5 5 2 0 0 0 0 26 88 20 70 6 54 16 5 5 0 0 1 1 5 37 48 99 96 100 29 7 51 49 4 27 87 52 0 5 5 5
87 100 98 81 81 15 49 22 37 5 1 0 2 4 49 99 93 5 80 6 14 8 3 5 4 1 4 5 14 12 42 89 100 100 100 2 32 98 100 100 99 87 74 5 5
94 100 100 93 63 77 50 46 5 5 5 2 15 5 5 57 33 96 5 6 2 2 9 47 88 5 5 22 62 14 66 74 100 100 99 25 16 82 100 100 100 17 90 5 5
100 68 20 34 99 100 82 8 4 5 5 5 5 13 54 86 85 74 98 6 6 31 5 22 38 14 42 57 100 100 100 100 100 100 99 76 25 100 100 100 100 45 72 90 5
97 39 76 99 91 96 58 60 5 5 5 5 5 55 100 68 95 93 84 92 96 74 100 92 97 82 92 85 97 100 100 100 100 100 100 100 6 100 100 100 100 7 5 30 98
94 93 62 61 84 49 35 62 73 60 5 21 100 100 97 95 100 81 24 60 100 100 100 86 88 100 100 97 100 100 100 100 100 100 100 97 50 97 100 94 4 16 56 90 93
100 100 45 99 100 78 84 83 86 51 90 100 100 86 95 76 82 92 49 100 100 100 100 100 100 100 100 100 100 100 80 100 100 100 100 100 100 100 100 11 5 5 2 0 0
98 100 100 61 99 100 100 100 100 100 100 95 99 98 100 100 93 72 100 99 100 100 100 100 100 100 100 100 100 100 100 100 100 100 100 98 100 100 12 11 5 11 25 37 4
97 99 100 100 100 100 100 40 89 100 100 84 100 97 30 99 90 100 99 100 98 86 100 100 100 100 100 54 85 100 100 100 100 97 100 100 54 5 5 5 28 95 100 100 100
36 91 99 100 100 100 74 27 31 18 12 28 62 10 20 20 87 76 99 80 100 100 100 100 100 100 94 98 100 100 100 100 100 100 100 77 6 5 5 48 53 76 100 100 96

GFSSW_prec_cloud_189.txt.gz
Cloud_Cover
100 89 51 7 0 0 0 0 0 0 0 0 0 0 0 0 0 0 0 0 0 0 0 0 0 0 0 0 0 0 0 0 0 0 0 0 0 0 0 0 0 0 0 0 0
1 17 94 30 10 0 0 0 0 0 0 0 0 0 0 0 0 0 0 0 0 0 0 0 0 0 0 0 0 0 0 0 0 0 0 0 0 0 0 0 0 0 0 0 0
18 2 15 14 1 0 0 0 0 0 0 0 0 0 0 0 0 0 0 0 0 0 0 0 0 0 0 0 0 0 0 0 0 0 0 0 3 0 0 0 0 0 0 0 0
67 0 12 0 0 0 0 0 0 0 0 0 0 0 0 0 0 0 0 0 0 0 0 0 0 0 0 0 0 0 0 0 0 0 0 0 4 1 0 0 0 0 0 0 0
0 0 0 0 0 0 0 0 0 0 0 0 0 0 0 0 0 0 0 0 0 0 0 0 0 0 0 0 0 0 0 0 0 0 0 0 0 0 0 0 0 0 0 0 0
0 0 0 0 0 0 0 0 0 0 0 0 0 0 0 0 0 0 0 0 0 0 0 0 0 0 0 0 0 0 0 0 0 0 0 0 0 5 4 2 0 0 0 0 0
0 0 0 0 0 0 0 0 0 0 0 0 0 0 0 0 0 0 0 0 0 0 0 0 0 0 0 0 0 0 0 0 0 0 0 0 4 2 2 0 0 0 0 0 0
0 0 0 0 0 0 0 0 0 0 0 0 0 0 0 0 0 0 0 0 0 0 0 0 0 0 0 0 0 0 0 0 0 0 0 0 15 4 5 4 0 0 0 0 0
0 0 0 0 0 0 0 0 0 0 0 0 0 0 0 0 0 0 0 0 0 0 0 0 0 0 0 0 0 0 0 0 0 0 0 1 34 3 0 5 2 3 0 0 0
0 0 0 0 0 0 0 0 0 0 0 0 0 0 0 0 0 0 0 0 0 3 0 0 0 0 0 0 1 0 0 0 0 0 0 0 0 0 0 0 1 0 0 0 0
0 0 0 0 0 0 0 0 0 0 0 0 0 0 0 0 0 0 0 0 0 0 0 0 0 0 0 0 0 0 0 0 0 0 0 0 5 5 15 0 0 0 0 0 0
0 0 0 0 0 0 0 0 0 0 0 0 0 0 0 0 0 0 0 0 0 0 0 0 0 0 0 0 0 0 0 0 1 5 6 95 59 100 31 2 0 0 0 0 0
0 0 0 0 0 0 0 0 0 2 2 5 5 5 1 0 0 3 3 1 0 0 0 0 0 0 0 0 0 0 4 5 2 5 5 5 11 51 2 0 0 0 0 0 0
0 0 0 0 0 0 5 0 0 5 5 11 5 4 2 0 2 5 38 5 5 5 5 9 4 4 0 4 7 30 27 5 5 5 5 10 1 2 53 5 5 1 4 1 4
0 0 0 0 0 0 0 5 5 17 6 5 1 0 0 0 3 22 36 89 67 5 32 99 5 5 5 5 19 91 5 68 21 5 3 29 23 0 1 64 100 2 2 12 23
96 0 4 0 0 0 5 30 46 5 5 5 5 6 39 23 5 3 3 1 5 1 1 2 2 0 0 11 9 52 5 3 0 2 4 0 9 0 61 80 97 46 70 100 100
100 19 7 0 5 5 5 5 5 5 0 3 5 15 19 5 21 8 7 5 5 0 0 0 0 0 3 11 98 79 21 2 16 5 10 34 100 60 75 45 6 94 57 5 8
9 1 0 5 5 6 6 5 5 5 11 51 24 75 23 5 5 5 6 5 5 5 0 0 2 16 5 5 5 1 4 73 100 94 83 96 99 98 90 98 67 5 34 5 5
18 7 17 66 16 30 23 30 18 77 52 53 60 67 26 5 5 0 0 5 5 0 2 1 3 20 5 4 4 0 8 88 81 20 98 5 14 100 36 65 24 5 5 5 5
5 19 82 39 45 93 70 68 60 61 55 7 11 12 5 5 3 5 18 5 18 6 37 8 25 18 4 2 0 5 5 30 100 100 100 98 84 100 100 99 100 5 5 5 5
10 11 50 23 27 65 60 11 5 9 12 5 4 2 5 5 9 50 66 37 58 5 12 46 60 2 82 26 88 90 13 36 99 99 100 98 100 100 100 100 51 43 15 24 2
5 6 48 94 84 50 5 95 99 23 5 22 5 56 85 32 5 5 17 82 62 77 98 86 100 54 44 38 13 14 64 100 100 100 100 100 48 98 98 100 100 100 8 84 69
16 8 7 3 34 63 10 65 50 6 5 74 100 96 50 100 86 47 50 96 98 100 100 98 89 91 90 100 57 86 100 100 100 100 98 100 92 100 73 11 17 86 6 7 36
20 70 89 52 43 36 75 40 25 86 15 38 72 15 31 74 87 97 95 100 55 60 100 100 64 100 56 27 100 66 81 100 100 100 92 100 100 100 100 100 100 100 100 64 92
21 82 94 95 93 82 94 100 95 93 62 95 71 37 51 97 71 53 94 94 72 69 32 100 100 96 100 99 100 100 100 100 100 83 85 100 100 100 100 100 95 45 19 83 94
74 100 62 100 100 100 99 99 67 91 100 56 87 84 100 100 91 61 82 68 82 83 100 92 60 100 96 100 100 97 90 96 67 100 100 100 38 55 73 98 93 100 100 100 92
40 23 60 99 98 87 42 73 97 100 55 97 100 100 98 100 79 61 82 84 100 98 100 99 100 100 90 81 19 14 8 88 100 99 75 100 98 95 100 100 100 100 96 100 69

GFSSW_prec_cloud_192.txt.gz
Cloud_Cover
0 1 10 1 1 0 0 0 0 0 0 0 0 0 0 0 0 0 0 0 0 0 0 0 0 0 0 0 0 0 0 0 0 0 0 0 0 0 0 0 0 0 0 0 0
0 0 2 8 0 0 0 0 0 0 0 0 0 0 0 0 0 0 0 0 0 0 0 0 0 0 0 0 0 0 0 0 0 0 0 0 0 0 0 0 0 0 0 0 0
0 0 0 0 0 0 0 0 0 0 0 0 0 0 0 0 0 0 0 0 0 0 0 0 0 0 0 0 0 0 0 0 0 0 0 0 0 0 0 0 0 0 0 0 0
0 0 0 0 0 0 0 0 0 0 0 0 0 0 0 0 0 0 0 0 0 0 0 0 0 0 0 0 0 0 0 0 0 0 0 0 0 0 0 0 0 0 2 0 0
0 0 0 0 0 0 0 0 0 0 0 0 0 0 0 0 0 0 0 0 0 0 0 0 0 0 0 0 0 0 0 0 0 0 0 0 0 0 0 0 0 0 2 5 0
0 0 0 0 0 0 0 0 0 0 0 0 0 0 0 0 0 0 0 0 0 0 0 0 0 0 0 0 0 0 0 0 0 0 0 0 0 0 0 0 0 0 0 5 0
0 0 0 0 0 0 0 0 0 0 0 0 0 0 0 0 0 0 0 0 0 0 0 0 0 0 0 0 0 0 0 0 0 0 0 0 0 0 0 0 0 0 0 0 0
0 0 0 0 0 0 0 0 0 0 0 0 0 0 0 0 0 0 0 0 0 0 0 0 0 0 0 0 0 0 0 0 0 0 0 0 0 0 0 0 0 0 0 0 0
0 0 0 0 0 0 0 0 0 0 0 0 0 0 0 0 0 0 0 0 0 0 0 0 0 0 0 0 0 0 0 0 0 0 0 0 0 0 0 0 0 0 0 0 0
0 0 0 0 0 0 0 0 0 0 0 0 0 0 0 0 0 0 0 0 0 0 0 0 0 0 0 0 0 0 0 0 0 0 0 0 0 0 4 3 0 0 0 0 0
0 0 0 0 0 0 0 0 0 0 0 0 0 0 0 0 0 0 0 0 0 0 0 0 4 1 5 5 1 0 0 5 5 5 0 0 0 5 92 98 5 5 1 0 0
0 0 0 0 0 0 0 0 0 0 0 0 0 0 1 1 4 1 0 0 0 0 0 0 5 5 4 5 0 3 0 0 0 0 0 0 0 4 80 82 7 4 3 0 3
0 0 0 0 0 0 0 0 0 0 0 2 5 0 5 5 5 5 2 4 4 5 5 5 5 5 2 5 2 0 0 0 0 0 0 0 0 0 2 0 0 0 3 0 0
0 0 0 0 0 0 0 0 0 0 0 0 5 5 5 5 5 5 5 5 5 5 3 5 5 5 5 9 6 4 1 0 0 0 0 7 1 0 5 1 1 4 3 0 4
0 0 0 0 0 0 0 0 0 0 0 2 5 5 10 42 6 5 5 14 5 4 4 28 17 34 71 47 5 5 4 2 0 0 0 35 2 0 5 1 81 64 4 2 5
0 0 0 0 0 0 0 0 0 0 1 5 8 14 83 56 5 5 58 73 35 5 5 5 18 14 5 5 5 5 4 1 0 0 0 0 3 0 19 40 79 100 6 19 99
0 0 0 0 0 0 0 0 2 5 9 64 69 97 54 5 6 5 5 5 5 4 5 6 5 6 0 0 0 2 48 49 12 5 2 1 12 99 50 43 100 82 29 95 100
0 0 0 0 0 0 0 5 49 96 100 75 26 8 5 5 5 19 25 5 5 3 0 0 5 10 5 0 0 0 5 20 46 18 4 0 0 7 9 49 63 100 100 100 100
17 0 0 0 0 3 4 7 30 98 49 5 5 4 15 5 24 55 56 53 5 8 66 31 5 5 18 0 2 0 3 0 5 4 5 0 0 5 9 21 93 100 72 11 8
0 0 1 4 5 6 27 8 5 24 18 5 5 18 19 64 6 11 11 5 5 91 82 47 25 11 2 1 4 38 24 12 1 99 98 62 82 100 100 79 99 100 98 80 97
0 0 14 4 5 5 5 5 5 5 5 5 34 40 82 72 28 20 6 4 5 13 5 25 64 3 4 4 5 10 63 87 100 92 100 87 20 53 100 100 100 97 97 100 100
0 2 0 5 5 5 5 5 5 5 50 89 100 100 87 56 19 55 40 46 10 5 5 28 100 63 5 5 5 5 53 98 100 24 100 100 100 100 85 93 100 100 100 100 69
3 14 32 5 22 83 51 18 97 90 100 100 100 100 81 12 49 5 5 48 28 5 82 39 26 45 11 1 4 1 7 98 84 50 55 100 100 100 100 98 33 100 100 31 81
3 44 62 5 27 60 64 80 95 100 100 100 99 54 44 74 11 87 25 6 94 20 5 49 13 6 80 5 5 44 5 9 100 100 73 99 70 100 100 100 100 100 100 100 100
51 90 94 32 91 78 55 92 76 100 44 6 8 13 35 69 7 5 5 92 65 79 84 93 70 18 5 5 5 44 10 24 99 25 100 6 91 98 100 100 60 87 32 100 26
28 62 98 95 100 100 57 65 74 69 78 82 60 47 58 5 48 77 5 78 5 5 5 94 66 70 5 1 5 66 5 34 37 57 66 97 62 93 5 90 54 25 100 100 100
94 32 23 56 94 17 5 53 97 93 5 5 94 69 38 5 69 6 47 14 6 5 5 98 100 86 49 52 17 2 12 26 36 99 78 100 100 100 77 100 100 100 100 100 93